Starlink 31822

operational
NORAD ID: 59752 Int'l Des: 2024-090 Owner: SPXS Country: US Constellation: starlink
LEOCIRCULAR

About Starlink 31822

Description loading...

Live Position

Loading 3D Globe...

Upcoming Passes

Altitude History

Altitude vs Time

uPlot chart will show altitude changes over time

Two-Line Element Set

1 59752U 24090Y 25259.25234837 .00001823 00000-0 75733-4 0 9993
2 59752 43.0050 88.4994 0001736 272.6315 87.4338 15.27586990 76757
Epoch: Sep 16, 2025 • Age: 7 hours

Current Status

Altitude 482.4 km
Velocity 7.63 km/s
Sub-Earth Point 9.17°N, 65.33°E
Launch Date May 13, 2024
Age 1.3 years
Type internet

Technical Details

Classification Payload
Mass 730.00 kg
Dry Mass 700.00 kg
Total Mass 730.00 kg
Length 0.30 m
Diameter 4.10 m
Span 29.00 m
Shape Box + pan
Manufacturer SPXS
Bus Type Starlink V2M
Phase Status In Orbit
Owner/State SPXS/US

Large Constellations

Loading constellations...